Miscellaneous Local Product
Issued by NWS North Platte, NE

Home | Current Version | Previous Version | Graphics & Text | Print | Product List | Glossary On
Versions: 1 2 3 4 5 6 7 8 9 10 11 12 13 14 15 16 17 18 19 20 21 22 23 24 25 26 27 28 29 30 31 32 33 34 35 36 37 38 39 40 41 42 43 44 45 46 47 48 49 50
352
AXUS43 KLBF 211610
MISLBF


WESTERN AND NORTH CENTRAL NEBRASKA HOURLY WEATHER ROUNDUP
NATIONAL WEATHER SERVICE NORTH PLATTE NE
1100 AM CDT SUN MAY 21 2017

NOTE: "FAIR" INDICATES FEW OR NO CLOUDS BELOW 12,000 FEET WITH NO
SIGNIFICANT WEATHER AND/OR OBSTRUCTIONS TO VISIBILITY.

NOTE: STATIONS NOT REPORTING VARIABLES SUCH AS SKY/WEATHER OR
PRESSURE ARE PROVIDED BY RAWS AND APRS NETWORKS AND ARE NOT UNDER
NATIONAL WEATHER SERVICE QUALITY CONTROL.

...OBSERVATIONS IN AND NEAR THE EASTERN PANHANDLE OF NEBRASKA...

CITY           SKY/WX    TMP DP  RH WIND       PRES   REMARKS
PINE RIDGE     SUNNY     59  40  49 W6        30.12S
GORDON         FAIR      58  35  41 NW10G16   30.11S
CHADRON        MOSUNNY   60  42  51 NW13      30.13S
ALLIANCE       SUNNY     57  36  45 N10       30.15R
SIDNEY         SUNNY     58  39  49 NW7G20    30.19R
CRESCENT LAKE    N/A     59  35  41 NW12        N/A
$$

...OBSERVATIONS IN NORTHERN NEBRASKA AND FAR SOUTHERN SOUTH DAKOTA...

CITY           SKY/WX    TMP DP  RH WIND       PRES   REMARKS
WINNER         FAIR      54  41  61 NW13      30.09R
VALENTINE      SUNNY     60  31  33 NW14      30.09R
THEDFORD       SUNNY     53  41  64 NW8       30.13R
AINSWORTH      SUNNY     56  38  50 NW13      30.10R
O`NEILL        SUNNY     53  38  57 NW15G23   30.09R
ORD            SUNNY     55  40  56 N13       30.10R
BROKEN BOW     SUNNY     59  42  53 W10       30.11R
VALENTINE NWR    N/A     48  37  67 W6          N/A
HALSEY           N/A     51  37  59 W7          N/A
BUTTE            N/A     51  40  66 N22G30      N/A
CHAMBERS         N/A     57  39  51 W3          N/A
EWING            N/A     53  44  72 NW14        N/A
$$

...OBSERVATIONS IN SOUTHWEST NEBRASKA AND FAR NORTHEAST COLORADO...

CITY           SKY/WX    TMP DP  RH WIND       PRES   REMARKS
WRAY           FAIR      63  39  42 NW7       30.19S
IMPERIAL       SUNNY     62  42  47 NW10      30.17R
OGALLALA       SUNNY     61  42  49 NW10      30.17R
NORTH PLATTE   SUNNY     60  44  55 W8        30.15R
MCCOOK         SUNNY     61  47  59 W9        30.16S
LEXINGTON      SUNNY     58  43  58 NW12      30.15R
STAPLETON        N/A     60  38  45 CALM        N/A
GOTHENBURG       N/A     55  39  55 NW6         N/A
CALLAWAY         N/A     54  47  77 NW12        N/A
$$

...OBSERVATIONS IN CENTRAL LINCOLN COUNTY AREA...

CITY           SKY/WX    TMP DP  RH WIND       PRES   REMARKS
N.P. AIRPORT   SUNNY     60  44  55 W8        30.15R
N.P. DOWNTOWN    N/A     59  47  63 W3G12       N/A
N.P. SOUTHEAST   N/A     60  43  54 MISG        N/A
N.P. HILLCREST   N/A     58  48  70 W10         N/A
$$

...SOME OBSERVATIONS FROM AROUND THE REGION...

CITY           SKY/WX    TMP DP  RH WIND       PRES   REMARKS
DENVER         MOSUNNY   58  32  37 VRB3      30.21S
LIMON          SUNNY     59  37  44 S12       30.21F
ASPEN          SUNNY     50  23  34 N6        30.26S
LARAMIE        CLOUDY    43  35  73 NW7       30.24S
CASPER         PTSUNNY   53  39  59 N5        30.21S
CHEYENNE       LGT RAIN  50  36  58 W6        30.24R
SCOTTSBLUFF    SUNNY     57  41  55 W7        30.17S
GRAND ISLAND   SUNNY     56  42  59 W9        30.13R
OMAHA          PTSUNNY   53  39  59 NW16G28   30.08R
SIOUX FALLS    CLOUDY    47  41  80 NW23G30   29.98R
PIERRE         SUNNY     55  35  47 NW9       30.05S
RAPID CITY     MOSUNNY   64  34  32 N18G24    30.08S
BISMARCK       MOSUNNY   54  37  52 MISG      30.02F
KANSAS CITY    MOSUNNY   57  43  59 NW10G21   30.14S
HILL CITY      SUNNY     66  44  45 W10       30.17S
WICHITA        MOSUNNY   65  46  50 VRB5      30.19S
DODGE CITY     MOSUNNY   62  47  57 SW7       30.20R
OKLAHOMA CITY  MOSUNNY   65  43  44 E3        30.22R
DALLAS         CLOUDY    72  50  45 NE9       30.16R
AMARILLO       SUNNY     66  42  41 S17G24    30.22S
$$




USA.gov is the U.S. government's official web portal to all federal, state and local government web resources and services.